Date,TemperatureHighF,TemperatureAvgF,TemperatureLowF,DewpointHighF,DewpointAvgF,DewpointLowF,HumidityHigh,HumidityAvg,HumidityLow,PressureMaxIn,PressureMinIn,WindSpeedMaxMPH,WindSpeedAvgMPH,GustSpeedMaxMPH,PrecipitationSumIn
2013-3-1,54.0,50.1,46.0,52.0,49.4,46.0,100,97,85,30.24,30.21,10,6,0,0.00
2013-3-2,51.0,47.5,42.0,51.0,44.3,36.0,100,89,70,30.23,30.04,26,11,0,0.00
2013-3-3,51.0,43.0,38.0,38.0,34.6,31.0,93,73,52,30.32,30.18,8,4,0,0.00
2013-3-4,48.0,41.6,37.0,39.0,36.9,34.0,99,84,60,30.32,29.99,8,4,0,0.00
2013-3-5,47.0,44.3,41.0,41.0,36.7,32.0,99,75,58,29.98,29.80,15,7,0,0.00
2013-3-6,44.0,42.5,41.0,44.0,42.0,41.0,99,97,93,29.85,29.64,11,4,0,0.00
2013-3-7,47.0,43.3,40.0,45.0,42.6,40.0,100,97,85,30.13,29.87,6,2,0,0.00
2013-3-8,51.0,43.0,38.0,43.0,40.1,38.0,99,90,62,30.24,30.11,8,5,0,0.00
2013-3-9,51.0,44.1,38.0,44.0,40.5,38.0,99,87,71,30.50,30.27,11,6,0,0.00
2013-3-10,46.0,44.0,41.0,43.0,41.5,40.0,99,90,80,30.49,30.42,7,3,0,0.00
2013-3-11,48.0,42.3,38.0,45.0,40.8,38.0,99,95,79,30.45,30.16,7,3,0,0.00
2013-3-12,55.0,49.1,42.0,51.0,47.2,42.0,100,94,79,30.14,29.96,8,4,0,0.00
2013-3-13,53.0,49.7,48.0,52.0,49.5,48.0,100,99,98,30.15,30.03,10,5,0,0.00
2013-3-14,56.0,49.0,46.0,55.0,48.8,46.0,100,99,96,30.09,30.00,10,3,0,0.00
2013-3-15,54.0,49.3,47.0,51.0,48.5,47.0,100,97,79,30.19,30.12,10,4,0,0.00
2013-3-16,50.0,46.6,43.0,46.0,39.6,33.0,100,76,56,30.11,29.86,32,12,0,0.00
2013-3-17,51.0,43.6,40.0,35.0,32.2,29.0,80,64,47,30.15,29.93,25,13,0,0.00
2013-3-18,49.0,43.8,39.0,39.0,34.8,30.0,95,71,47,30.24,30.04,15,6,0,0.00
2013-3-19,46.0,41.9,37.0,44.0,36.3,32.0,96,81,61,30.24,29.59,9,5,0,0.00
2013-3-20,50.0,46.0,42.0,47.0,40.3,30.0,99,81,60,29.91,29.29,34,14,0,0.00
2013-3-21,46.0,41.9,39.0,37.0,32.2,30.0,88,68,53,30.19,29.94,21,11,0,0.00
2013-3-22,46.0,40.0,35.0,35.0,31.4,25.0,95,73,45,30.38,30.21,9,4,0,0.00
2013-3-23,54.0,41.4,37.0,40.0,36.0,34.0,89,81,59,30.40,30.29,18,8,0,0.00
2013-3-24,58.0,48.2,43.0,45.0,42.0,39.0,98,79,58,30.27,30.01,43,32,0,0.00
2013-3-25,46.0,42.8,41.0,45.0,42.5,41.0,100,99,96,30.02,29.98,14,7,0,0.00
2013-3-26,48.0,43.0,40.0,45.0,42.6,40.0,100,98,90,30.08,29.99,10,5,0,0.00
2013-3-27,49.0,42.2,38.0,42.0,39.6,37.0,99,91,63,30.10,30.05,17,10,0,0.00
2013-3-28,47.0,44.0,40.0,43.0,40.9,39.0,98,89,75,30.17,30.06,15,7,0,0.00
2013-3-29,45.0,42.3,40.0,40.0,37.5,35.0,91,82,77,30.37,30.18,17,7,0,0.00
2013-3-30,49.0,43.4,40.0,44.0,39.6,-99.9,99,90,76,30.42,30.36,14,7,0,0.00
2013-3-31,47.0,44.1,41.0,46.0,43.4,41.0,99,97,86,30.34,30.03,17,9,0,0.00